目前分類:手錶-SEIKO 快速到貨 (65)

瀏覽方式: 標題列表 簡短摘要
發表時間 文章標題 人氣 留言
2013-01-29 SEIKO 優美淑女時尚腕錶-珍珠白/25mm-價格 (0) (0)
2013-01-29 SEIKO KINETIC 皇室品味經典人動電能腕錶-黑/40mm-網友評價 (0) (0)
2013-01-29 SEIKO 爵士星期逆跳多環腕錶-白/40mm-開箱 (0) (0)
2013-01-29 SEIKO SOLAR 怒海戰將環保太陽能腕錶-黑/41mm-價格 (1) (0)
2013-01-29 SEIKO Presage 名流時尚藍寶石鏡面23石機械錶-黑/39mm-開箱 (2) (0)
2013-01-29 SEIKO 軍用5號自動機械錶-軍綠/38mm-推薦 (0) (0)
2013-01-29 SEIKO 典雅復古風時尚女錶-白/30mm-開箱 (1) (0)
2013-01-29 SEIKO 極速先鋒盾牌5號24石自動機械錶-黑/41mm-網友評價 (0) (0)
2013-01-29 SEIKO 盾牌5號24石世界時間GMT機械錶-全IP黑/42mm-開箱 (1) (0)
2013-01-29 SEIKO 氣質女王時尚晶鑽腕錶-銀x雙色版/26mm-價格 (0) (0)
2013-01-29 SEIKO 經典簡約風中金時尚腕錶-深灰/39mm-網友評價 (0) (0)
2013-01-29 SEIKO 競速時尚三環計時碼錶-黑/42mm-網友評價 (0) (0)
2013-01-29 SEIKO 爵士星期逆跳多環腕錶-黑/40mm-網友評價 (0) (0)
2013-01-29 SEIKO 超時空自動機械情人對錶-雅白-推薦 (1) (0)
2013-01-29 SEIKO 優質典雅風時尚女錶-白x金框/28mm-推薦 (0) (0)
2013-01-29 SEIKO 雅痞風5號23石自動機械錶-全IP黑/42mm-網友評價 (0) (0)
2013-01-29 SEIKO 軍用5號自動機械腕錶-黑面/38mm-價格 (0) (0)
2013-01-29 ALBA 魅麗時光大錶徑晶鑽女錶-全IP金/36mm-價格 (2) (0)
2013-01-29 SEIKO 名流羅馬風盾牌5號機械男錶-全IP金/37mm-價格 (0) (0)
2013-01-29 ALBA 魅麗時光大錶徑晶鑽女錶-黑/36mm-開箱 (2) (0)
2013-01-29 SEIKO 雪天使自動女機械錶-白/28mm-網友評價 (7) (0)
2013-01-29 SEIKO 名流羅馬風盾牌5號機械男錶-黑面/37mm-網友評價 (0) (0)
2013-01-29 SEIKO 第二代軍用帆布機械錶-軍綠/38mm-網友評價 (10) (0)
2013-01-29 SEIKO 品味紳士盾牌5號自動機械錶-白/37mm-推薦 (0) (0)
2013-01-29 SEIKO 金色爵士盾牌5號自動機械錶-金/37mm-價格 (1) (0)
2013-01-29 SEIKO 經典雅爵時尚男錶-銀白xIP金/39mm-推薦 (0) (0)
2013-01-29 SEIKO 時尚新爵IP金5號自動機械腕錶-黑/38mm-推薦 (0) (0)
2013-01-29 SEIKO 航空三眼鬧鈴計時碼錶-白/42mm-開箱 (3) (0)
2013-01-29 ALBA 極簡都會風雙顯腕錶-黑/42mm-價格 (2) (0)
2013-01-29 SEIKO 極速先鋒盾牌5號24石自動機械錶-白/41mm-價格 (1) (0)
2013-01-29 SEIKO 5號盾牌經典大刻度機械錶-黑/37mm-價格 (1) (0)
2013-01-29 ALBA 特種精英逆跳計時男錶-銀白/43mm-推薦 (2) (0)
2013-01-29 SEIKO 優質時尚風皮帶腕錶-銀框/39mm-推薦 (4) (0)
2013-01-29 SEIKO 優美金緻典藏時尚女錶-IP金/25mm-價格 (0) (0)
2013-01-29 SEIKO 紳士金年代5號自動機械腕錶-黑面/37mm-網友評價 (1) (0)
2013-01-29 ALBA 極簡米蘭風雙顯腕錶-白/42mm-價格 (1) (0)
2013-01-29 ALBA 【鈦】時尚達人經典腕錶-白/40mm-開箱 (8) (0)
2013-01-29 SEIKO 雅士品味風5號自動機械錶-香檳金/36mm-推薦 (2) (0)
2013-01-29 SEIKO 紳士簡約風皮帶腕錶-白金框/37mm-推薦 (0) (0)
2013-01-29 SEIKO 休閒型男5號自動機械錶-水藍/37mm-價格 (1) (0)
2013-01-29 SEIKO 雅痞風5號23石自動機械錶-黑x金時標/42mm-網友評價 (4) (0)
2013-01-29 SEIKO 經典名仕藍寶石鏡面24石自動機械錶-黑/40mm-推薦 (5) (0)
2013-01-29 SEIKO 金典雅士石英腕錶-黑x金/38mm-網友評價 (1) (0)
2013-01-29 SEIKO 氣質女王時尚晶鑽腕錶-黑/26mm-開箱 (4) (0)
2013-01-29 SEIKO 雅仕金風尚5號自動機械對錶-金x白-網友評價 (3) (0)
2013-01-29 SEIKO Presage 經典紳仕藍寶石鏡面23石機械錶-銀白/39mm-網友評價 (3) (0)
2013-01-29 SEIKO 時尚貴族盾牌5號自動機械對錶-黑-網友評價 (2) (0)
2013-01-29 SEIKO 時尚新爵IP金5號自動機械腕錶-金/38mm-價格 (0) (0)
2013-01-29 SEIKO FC Barcelona 巴塞隆納競速計時腕錶-黑/41mm-網友評價 (2) (0)
2013-01-29 SEIKO 優質時尚風皮帶腕錶-金框/39mm-推薦 (1) (0)
1 2